Pittsburgh Allegheny Co., PA

5:05 AM EDT on March 30, 2017 (GMT -0400)
Allegheny County

Weather History for KAGC - February, 2013

Change the Weather History Date:

Saturday, February 9, 2013

  Actual Average Record
Temperature  
Mean Temperature 27 °F -  
Max Temperature 33 °F 34 °F 68 °F (2001)
Min Temperature 21 °F 21 °F 1 °F (1975)
Degree Days  
Heating Degree Days 38    
Moisture  
Dew Point 16 °F    
Average Humidity 69    
Maximum Humidity 86    
Minimum Humidity 48    
Precipitation  
Precipitation 0.00 in - - ()
Sea Level Pressure  
Sea Level Pressure 30.35 in    
Wind  
Wind Speed 10 mph (NW)    
Max Wind Speed 16 mph    
Max Gust Speed 29 mph    
Visibility 9 miles    
Events Snow    
Averages and records for this station are not official NWS values.
T = Trace of Precipitation, MM = Missing Value Source: NWS Daily Summary

Daily Weather History Graph

Daily Weather History Graph

Search for Another Location

Airport or City:

Trip Planner

Search our weather history database for the weather conditions in past years. The results will help you decide how hot, cold, wet, or windy it might be!

Date:

Astronomy

Feb. 09, 2013 Rise Set
Actual Time 7:20 AM EST 5:48 PM EST
Civil Twilight 6:51 AM EST 6:16 PM EST
Nautical Twilight 6:19 AM EST 6:48 PM EST
Astronomical Twilight 5:48 AM EST 7:20 PM EST
Moon 6:30 AM EST (2/9) 5:29 PM EST (2/9)
Length of Visible Light 11h 24m
Length of Day
10h 28m
Waning Crescent, 0% of the Moon is Illuminated
Feb 9
Waning Crescent
Feb 10
New
Feb 17
First Quarter
Feb 25
Full
Mar 4
Last Quarter

Hourly Weather History & Observations

Time (EST) Temp. Windchill Dew Point Humidity Pressure Visibility Wind Dir Wind Speed Gust Speed Precip Events Conditions
12:53 AM 25.0 °F 12.2 °F 19.0 °F 78% 30.19 in 9.0 mi NW 16.1 mph 21.9 mph 0.00 in   Overcast
1:53 AM 24.1 °F 11.0 °F 17.1 °F 75% 30.22 in 10.0 mi NNW 16.1 mph 28.8 mph 0.00 in   Overcast
2:53 AM 23.0 °F 11.1 °F 17.1 °F 78% 30.26 in 8.0 mi NNW 12.7 mph - 0.00 in   Overcast
3:53 AM 21.9 °F 11.0 °F 16.0 °F 78% 30.27 in 10.0 mi NNW 10.4 mph - N/A   Overcast
4:53 AM 21.9 °F 13.4 °F 17.1 °F 82% 30.29 in 3.0 mi NNW 6.9 mph - 0.00 in Snow Light Snow
5:05 AM 21.2 °F 12.6 °F 17.6 °F 86% 30.23 in 2.5 mi NNW 6.9 mph - 0.00 in Snow Light Snow
5:27 AM 21.2 °F 13.6 °F 17.6 °F 86% 30.24 in 4.0 mi NW 5.8 mph - 0.00 in Snow Light Snow
5:53 AM 21.9 °F 11.7 °F 18.0 °F 85% 30.32 in 4.0 mi NW 9.2 mph 16.1 mph 0.00 in Snow Light Snow
6:53 AM 21.9 °F 11.0 °F 17.1 °F 82% 30.35 in 5.0 mi NW 10.4 mph 17.3 mph 0.00 in Snow Light Snow
7:53 AM 21.9 °F 10.4 °F 15.1 °F 75% 30.39 in 10.0 mi NNW 11.5 mph 19.6 mph 0.00 in   Overcast
8:53 AM 21.9 °F 13.4 °F 17.1 °F 82% 30.40 in 7.0 mi NNW 6.9 mph - 0.00 in Snow Light Snow
9:53 AM 23.0 °F 13.9 °F 16.0 °F 74% 30.41 in 10.0 mi NNW 8.1 mph - 0.00 in   Overcast
10:53 AM 25.0 °F 16.3 °F 17.1 °F 72% 30.42 in 10.0 mi WNW 8.1 mph 17.3 mph N/A   Overcast
11:53 AM 26.1 °F 18.4 °F 17.1 °F 69% 30.41 in 10.0 mi NNW 6.9 mph - N/A   Mostly Cloudy
12:53 PM 28.9 °F 21.9 °F 17.1 °F 61% 30.39 in 10.0 mi NW 6.9 mph - N/A   Clear
1:53 PM 30.9 °F 25.2 °F 16.0 °F 54% 30.38 in 10.0 mi Variable 5.8 mph - N/A   Clear
2:53 PM 32.0 °F 24.8 °F 15.1 °F 50% 30.37 in 10.0 mi NNW 8.1 mph - N/A   Clear
3:53 PM 32.0 °F 24.8 °F 14.0 °F 48% 30.38 in 10.0 mi West 8.1 mph - N/A   Clear
4:53 PM 33.1 °F 28.7 °F 15.1 °F 48% 30.39 in 10.0 mi NW 4.6 mph - N/A   Clear
5:53 PM 30.9 °F 27.5 °F 15.1 °F 52% 30.38 in 10.0 mi WSW 3.5 mph - N/A   Clear
6:53 PM 30.0 °F - 14.0 °F 51% 30.39 in 10.0 mi Calm Calm - N/A   Clear
7:53 PM 28.9 °F 23.9 °F 14.0 °F 54% 30.40 in 10.0 mi SSW 4.6 mph - N/A   Clear
8:53 PM 28.9 °F 25.2 °F 15.1 °F 56% 30.40 in 10.0 mi SW 3.5 mph - N/A   Clear
9:53 PM 26.1 °F - 15.1 °F 63% 30.42 in 10.0 mi Calm Calm - N/A   Clear
10:53 PM 25.0 °F 19.3 °F 15.1 °F 66% 30.41 in 10.0 mi SE 4.6 mph - N/A   Clear
11:53 PM 23.0 °F 15.8 °F 17.1 °F 78% 30.39 in 10.0 mi SE 5.8 mph - N/A   Clear